Location: Gollag?dem
(16.8053°N, 80.8024°E)
Time: 23:17:59
(UTC+00:00)

Delta 142 - Visible Passes

Search period start: 06 December 2021 00:00
Search period end: 16 December 2021 00:00
Orbit: 548 x 1588 km, 28.4° (Epoch: 06 December)

Date Brightness Start Highest point End Pass type
(mag) Time Alt. Az. Time Alt. Az. Time Alt. Az.
06 Dec 5.8 13:41:19 10° WNW 13:50:06 38° N 13:52:30 33° NNE visible
06 Dec 7.2 15:37:35 10° WNW 15:39:02 15° NW 15:39:02 15° NW visible
07 Dec 6.0 12:40:51 10° WNW 12:50:13 43° N 12:57:16 15° NE visible
07 Dec 6.1 14:37:22 10° WNW 14:43:47 34° NNW 14:43:47 34° NNW visible
08 Dec 5.8 13:37:04 10° WNW 13:46:00 39° N 13:48:34 33° NNE visible
08 Dec 7.1 15:32:51 10° WNW 15:35:05 18° NW 15:35:05 18° NW visible
09 Dec 6.1 12:36:45 10° WNW 12:46:02 41° N 12:53:23 14° ENE visible
09 Dec 5.9 14:32:47 10° WNW 14:39:54 40° NNW 14:39:54 40° NNW visible
10 Dec 5.8 13:32:39 10° WNW 13:41:54 42° N 13:44:45 34° NE visible
10 Dec 6.8 15:28:02 10° WNW 15:31:18 24° WNW 15:31:18 24° WNW visible
11 Dec 6.1 12:32:32 10° WNW 12:41:53 41° N 12:49:40 13° ENE visible
11 Dec 5.6 14:28:03 10° WNW 14:36:13 52° NNW 14:36:13 52° NNW visible
12 Dec 5.7 13:28:05 10° WNW 13:37:43 49° NNE 13:41:13 35° ENE visible
12 Dec 6.5 15:23:15 10° WNW 15:27:45 31° WNW 15:27:45 31° WNW visible
13 Dec 6.0 12:28:11 10° WNW 12:37:41 45° N 12:46:18 11° ENE visible
13 Dec 5.2 14:23:16 10° WNW 14:32:51 72° N 14:32:51 72° N visible
13 Dec 7.6 16:18:49 10° WNW 16:19:24 12° WNW 16:19:24 12° WNW visible
14 Dec 5.5 13:23:25 10° WNW 13:33:23 60° NNE 13:38:04 32° E visible
14 Dec 6.2 15:18:34 10° WNW 15:24:37 41° W 15:24:37 41° W visible
15 Dec 5.8 12:23:41 10° WNW 12:33:24 52° NNE 12:42:41 10° E visible
15 Dec 5.2 14:18:32 10° WNW 14:28:38 86° SSW 14:30:00 70° SE visible
15 Dec 7.4 16:14:42 10° W 16:16:34 16° W 16:16:34 16° W visible
